Gainesville, GA

4:11 PM EDT on April 23, 2017 (GMT -0400)
Gilmer Memorial

Weather History for KGVL - July, 2013

Change the Weather History Date:

Wednesday, July 31, 2013

  Actual Average Record
Temperature  
Mean Temperature 75 °F 79 °F  
Max Temperature 78 °F 88 °F 100 °F (1999)
Min Temperature 71 °F 70 °F 56 °F (1936)
Cooling Degree Days 10 14  
Month to date cooling degree days 354 426  
Year to date cooling degree days 819 922  
Since 1 June cooling degree days 674 747  
Growing Degree Days 24 (Base 50)    
Moisture  
Dew Point 68 °F    
Average Humidity 78    
Maximum Humidity 87    
Minimum Humidity 69    
Precipitation  
Precipitation 0.02 in 0.15 in 3.28 in (2001)
Month to date precipitation 11.80 4.51  
Year to date precipitation 33.10 31.82  
Sea Level Pressure  
Sea Level Pressure 30.07 in    
Wind  
Wind Speed 4 mph (SW)    
Max Wind Speed 12 mph    
Max Gust Speed 30 mph    
Visibility 10 miles    
Events Rain    
T = Trace of Precipitation, MM = Missing Value Source: NWS Daily Summary

Daily Weather History Graph

Daily Weather History Graph

Search for Another Location

Airport or City:

Trip Planner

Search our weather history database for the weather conditions in past years. The results will help you decide how hot, cold, wet, or windy it might be!

Date:

Astronomy

Jul. 31, 2013 Rise Set
Actual Time 6:45 AM EDT 8:37 PM EDT
Civil Twilight 6:18 AM EDT 9:04 PM EDT
Nautical Twilight 5:44 AM EDT 9:37 PM EDT
Astronomical Twilight 5:09 AM EDT 10:13 PM EDT
Moon 1:40 AM EDT (7/31) 3:51 PM EDT (7/31)
Length of Visible Light 14h 46m
Length of Day
13h 51m
Waning Crescent, 32% of the Moon is Illuminated
Jul 31
Waning Crescent
Aug 6
New
Aug 14
First Quarter
Aug 20
Full
Aug 28
Last Quarter

Hourly Weather History & Observations

Time (EDT) Temp. Dew Point Humidity Pressure Visibility Wind Dir Wind Speed Gust Speed Precip Events Conditions
12:53 AM 75.0 °F 66.0 °F 73% 30.14 in 10.0 mi SE 3.5 mph - N/A   Clear
1:53 AM 75.0 °F 64.9 °F 71% 30.13 in 10.0 mi East 3.5 mph - N/A   Mostly Cloudy
3:53 AM 73.9 °F 66.0 °F 76% 30.11 in 10.0 mi NE 3.5 mph - N/A   Clear
4:53 AM 73.0 °F 66.9 °F 81% 30.11 in 10.0 mi ENE 3.5 mph - N/A   Partly Cloudy
5:53 AM 73.0 °F 69.1 °F 87% 30.13 in 10.0 mi Calm Calm - 0.01 in Rain Light Rain
6:53 AM 71.1 °F 66.9 °F 87% 30.15 in 10.0 mi WSW 5.8 mph - 0.00 in Rain Light Rain
7:53 AM 73.0 °F 66.9 °F 81% 30.14 in 10.0 mi Calm Calm - 0.00 in   Clear
8:53 AM 75.0 °F 66.9 °F 76% 30.14 in 10.0 mi Calm Calm - N/A   Overcast
9:53 AM 75.0 °F 66.9 °F 76% 30.14 in 10.0 mi North 4.6 mph - N/A   Overcast
10:53 AM 75.0 °F 66.9 °F 76% 30.12 in 10.0 mi ENE 6.9 mph - 0.00 in   Scattered Clouds
11:53 AM 75.0 °F 68.0 °F 79% 30.12 in 10.0 mi Variable 3.5 mph - 0.00 in   Overcast
12:53 PM 75.9 °F 68.0 °F 76% 30.12 in 10.0 mi SW 4.6 mph - N/A   Overcast
1:53 PM 75.0 °F 70.0 °F 84% 30.11 in 8.0 mi South 3.5 mph - 0.00 in Rain Light Rain
2:53 PM 75.0 °F 66.9 °F 76% 30.08 in 10.0 mi South 6.9 mph - 0.00 in   Mostly Cloudy
3:53 PM 75.0 °F 66.9 °F 76% 30.06 in 10.0 mi SSW 4.6 mph - 0.00 in Rain Light Rain
4:47 PM 73.4 °F 69.8 °F 88% 30.08 in 10.0 mi WSW 4.6 mph - 0.01 in Rain Light Rain
4:48 PM 73.4 °F 69.8 °F 88% 30.08 in 10.0 mi SW 3.5 mph - 0.01 in   Overcast
4:53 PM 73.9 °F 69.1 °F 85% 30.03 in 10.0 mi SW 5.8 mph - 0.01 in   Overcast
5:02 PM 75.2 °F 69.8 °F 83% 30.06 in 10.0 mi Variable 4.6 mph - N/A   Mostly Cloudy
5:27 PM 75.2 °F 68.0 °F 78% 30.05 in 10.0 mi West 5.8 mph - N/A   Mostly Cloudy
5:38 PM 77.0 °F 68.0 °F 74% 30.04 in 10.0 mi Calm Calm - N/A   Mostly Cloudy
5:49 PM 77.0 °F 68.0 °F 74% 30.04 in 10.0 mi WSW 4.6 mph - N/A   Scattered Clouds
5:53 PM 77.0 °F 68.0 °F 74% 30.00 in 10.0 mi Calm Calm - N/A   Scattered Clouds
6:00 PM 78.8 °F 68.0 °F 69% 30.04 in 10.0 mi Variable 3.5 mph - N/A   Mostly Cloudy
6:14 PM 77.0 °F 68.0 °F 74% 30.04 in 10.0 mi WSW 6.9 mph - N/A   Scattered Clouds
6:24 PM 77.0 °F 68.0 °F 74% 30.04 in 10.0 mi WSW 5.8 mph - N/A   Mostly Cloudy
6:53 PM 77.0 °F 68.0 °F 74% 29.99 in 10.0 mi SSW 3.5 mph - N/A   Mostly Cloudy
7:19 PM 75.2 °F 68.0 °F 78% 30.04 in 10.0 mi Calm Calm - N/A   Scattered Clouds
7:53 PM 75.9 °F 68.0 °F 76% 30.01 in 10.0 mi SW 3.5 mph - N/A   Mostly Cloudy
8:53 PM 75.0 °F 68.0 °F 79% 30.02 in 10.0 mi Calm Calm - N/A   Overcast
9:53 PM 73.9 °F 69.1 °F 85% 30.03 in 10.0 mi SW 4.6 mph - N/A   Overcast
10:53 PM 73.0 °F 69.1 °F 87% 30.02 in 10.0 mi SW 4.6 mph - N/A   Overcast
11:53 PM 73.0 °F 69.1 °F 87% 30.01 in 10.0 mi SW 4.6 mph - 0.00 in   Overcast